DAL776 KBOS-KATL

Flight info

Callsign DAL776
Flight time N/A
Altitude 38000
Route BLZZR6 BLZZR BAF Q448 PTW J48 CSN/N0474F400 J48 MOL FLASK OZZZI2
Aircraft A333/H-SDE3GHIJ2J3J5M1RVWXY/LB2D1

Departure

Time 2026-05-06 18:34
Airport Boston Logan International Airport (KBOS)

Arrival

Time N/A
Airport Hartsfield Jackson Atlanta International Airport (KATL)
Time Latitude Longitude Altitude Speed Heading
2026-05-06 18:06 42.36380 -71.02429 22 ft 0 kts 272°
2026-05-06 18:21 42.36380 -71.02422 22 ft 2 kts 265°
2026-05-06 18:21 42.36384 -71.02402 22 ft 2 kts 238°
2026-05-06 18:21 42.36393 -71.02387 22 ft 2 kts 217°
2026-05-06 18:22 42.36406 -71.02377 22 ft 2 kts 195°
2026-05-06 18:22 42.36421 -71.02374 22 ft 2 kts 178°
2026-05-06 18:22 42.36435 -71.02374 22 ft 2 kts 180°
2026-05-06 18:22 42.36450 -71.02374 22 ft 2 kts 182°
2026-05-06 18:23 42.36460 -71.02374 22 ft 0 kts 182°
2026-05-06 18:25 42.36458 -71.02374 22 ft 0 kts 181°
2026-05-06 18:25 42.36440 -71.02371 22 ft 4 kts 172°
2026-05-06 18:25 42.36398 -71.02353 22 ft 8 kts 159°
2026-05-06 18:26 42.36325 -71.02338 22 ft 12 kts 181°
2026-05-06 18:26 42.36224 -71.02345 22 ft 16 kts 183°
2026-05-06 18:26 42.36121 -71.02344 22 ft 11 kts 162°
2026-05-06 18:26 42.36098 -71.02322 22 ft 0 kts 111°
2026-05-06 18:27 42.36077 -71.02312 22 ft 5 kts 157°
2026-05-06 18:27 42.36039 -71.02265 22 ft 8 kts 128°
2026-05-06 18:27 42.36002 -71.02187 22 ft 10 kts 121°
2026-05-06 18:27 42.35964 -71.02103 23 ft 9 kts 121°
2026-05-06 18:28 42.35932 -71.02032 24 ft 7 kts 121°
2026-05-06 18:28 42.35907 -71.01972 25 ft 7 kts 121°
2026-05-06 18:28 42.35881 -71.01914 25 ft 7 kts 120°
2026-05-06 18:28 42.35860 -71.01854 25 ft 6 kts 111°
2026-05-06 18:29 42.35847 -71.01790 25 ft 7 kts 103°
2026-05-06 18:29 42.35835 -71.01714 25 ft 9 kts 102°
2026-05-06 18:29 42.35825 -71.01625 26 ft 9 kts 86°
2026-05-06 18:29 42.35860 -71.01553 27 ft 10 kts 29°
2026-05-06 18:30 42.35940 -71.01520 26 ft 14 kts 16°
2026-05-06 18:30 42.36047 -71.01473 25 ft 18 kts 20°
2026-05-06 18:30 42.36174 -71.01411 25 ft 20 kts 20°
2026-05-06 18:30 42.36322 -71.01340 25 ft 23 kts 20°
2026-05-06 18:31 42.36485 -71.01262 25 ft 24 kts 18°
2026-05-06 18:31 42.36647 -71.01184 22 ft 25 kts 20°
2026-05-06 18:31 42.36810 -71.01176 22 ft 23 kts 327°
2026-05-06 18:31 42.36943 -71.01165 22 ft 20 kts 43°
2026-05-06 18:32 42.37061 -71.01061 20 ft 20 kts 25°
2026-05-06 18:32 42.37195 -71.00975 18 ft 21 kts 26°
2026-05-06 18:32 42.37331 -71.00891 18 ft 21 kts 21°
2026-05-06 18:32 42.37470 -71.00825 19 ft 21 kts 20°
2026-05-06 18:33 42.37609 -71.00755 19 ft 21 kts 20°
2026-05-06 18:33 42.37746 -71.00689 19 ft 20 kts 20°
2026-05-06 18:33 42.37832 -71.00570 19 ft 18 kts 96°
2026-05-06 18:33 42.37768 -71.00480 19 ft 3 kts 199°
2026-05-06 18:34 42.37763 -71.00482 19 ft 8 kts 200°
2026-05-06 18:34 42.37405 -71.00656 19 ft 98 kts 199°
2026-05-06 18:34 42.36505 -71.01095 175 ft 160 kts 200°
2026-05-06 18:34 42.35449 -71.01643 953 ft 175 kts 204°
2026-05-06 18:35 42.34243 -71.02315 1787 ft 204 kts 195°
2026-05-06 18:35 42.32818 -71.02306 2628 ft 215 kts 163°
2026-05-06 18:35 42.31696 -71.01083 3676 ft 214 kts 126°
2026-05-06 18:35 42.31261 -70.99161 4516 ft 223 kts 104°
2026-05-06 18:36 42.30906 -70.97131 5047 ft 231 kts 118°
2026-05-06 18:36 42.30638 -70.94810 5368 ft 271 kts 91°
2026-05-06 18:36 42.31212 -70.92261 5842 ft 296 kts 68°
2026-05-06 18:36 42.31932 -70.89657 6391 ft 301 kts 83°
2026-05-06 18:37 42.32383 -70.86888 6996 ft 309 kts 84°
2026-05-06 18:37 42.32806 -70.84016 7647 ft 315 kts 85°
2026-05-06 18:37 42.33094 -70.81107 8384 ft 313 kts 97°
2026-05-06 18:37 42.32616 -70.78330 9156 ft 304 kts 120°
2026-05-06 18:38 42.31605 -70.75839 9992 ft 304 kts 121°
2026-05-06 18:38 42.30436 -70.73503 10823 ft 304 kts 135°
2026-05-06 18:38 42.28700 -70.72002 11528 ft 303 kts 161°
2026-05-06 18:38 42.26675 -70.71544 12263 ft 297 kts 186°
2026-05-06 18:39 42.24659 -70.72083 13079 ft 292 kts 195°
2026-05-06 18:39 42.22707 -70.72565 13971 ft 288 kts 195°
2026-05-06 18:39 42.20798 -70.73216 14857 ft 277 kts 210°
2026-05-06 18:40 42.18461 -70.76870 16467 ft 266 kts 251°
2026-05-06 18:40 42.18035 -70.79293 17208 ft 265 kts 254°
2026-05-06 18:40 42.17671 -70.81700 17918 ft 264 kts 256°
2026-05-06 18:40 42.17346 -70.84014 18593 ft 262 kts 256°
2026-05-06 18:41 42.17138 -70.85526 19017 ft 262 kts 256°
2026-05-06 18:41 42.16813 -70.87897 19667 ft 260 kts 256°
2026-05-06 18:41 42.16499 -70.90206 20272 ft 260 kts 256°
2026-05-06 18:41 42.16171 -70.92604 20876 ft 259 kts 256°
2026-05-06 18:42 42.16025 -70.95033 21436 ft 263 kts 270°
2026-05-06 18:42 42.16225 -70.97466 21977 ft 263 kts 269°
2026-05-06 18:42 42.16397 -70.99891 22517 ft 263 kts 270°
2026-05-06 18:42 42.16579 -71.02347 22936 ft 267 kts 270°
2026-05-06 18:43 42.16759 -71.04874 22908 ft 287 kts 270°
2026-05-06 18:43 42.16965 -71.07667 22949 ft 304 kts 270°
2026-05-06 18:43 42.17171 -71.10521 22984 ft 321 kts 271°
2026-05-06 18:43 42.17385 -71.13470 23012 ft 337 kts 271°
2026-05-06 18:44 42.17617 -71.16685 23036 ft 353 kts 271°
2026-05-06 18:44 42.17858 -71.20052 23085 ft 370 kts 272°
2026-05-06 18:44 42.18102 -71.23434 23261 ft 388 kts 271°
2026-05-06 18:44 42.18364 -71.27119 23711 ft 398 kts 272°
2026-05-06 18:45 42.18627 -71.30811 24506 ft 399 kts 272°
2026-05-06 18:45 42.18889 -71.34515 25335 ft 399 kts 272°
2026-05-06 18:45 42.19151 -71.38250 25849 ft 405 kts 272°
2026-05-06 18:45 42.19405 -71.41914 26398 ft 409 kts 272°
2026-05-06 18:46 42.19666 -71.45633 27095 ft 409 kts 272°
2026-05-06 18:46 42.19931 -71.49481 27777 ft 409 kts 272°
2026-05-06 18:46 42.20193 -71.53245 28229 ft 413 kts 272°
2026-05-06 18:46 42.20444 -71.56968 28590 ft 418 kts 272°
2026-05-06 18:47 42.20719 -71.60926 29133 ft 419 kts 272°
2026-05-06 18:47 42.20977 -71.64745 29713 ft 416 kts 272°
2026-05-06 18:47 42.21230 -71.68520 30346 ft 414 kts 271°
2026-05-06 18:47 42.21493 -71.72377 30935 ft 412 kts 271°
2026-05-06 18:48 42.21696 -71.76041 31538 ft 405 kts 267°
2026-05-06 18:48 42.21523 -71.79813 32117 ft 401 kts 263°
2026-05-06 18:48 42.21326 -71.83604 32706 ft 397 kts 263°
2026-05-06 18:48 42.21135 -71.87019 33203 ft 394 kts 263°
2026-05-06 18:49 42.20936 -71.90675 33831 ft 388 kts 263°
2026-05-06 18:49 42.20734 -71.94304 34313 ft 386 kts 263°
2026-05-06 18:49 42.20541 -71.97778 34755 ft 383 kts 264°
2026-05-06 18:49 42.20346 -72.01279 35418 ft 376 kts 264°
2026-05-06 18:50 42.20150 -72.04780 35857 ft 373 kts 264°
2026-05-06 18:50 42.19956 -72.08179 36172 ft 372 kts 264°
2026-05-06 18:50 42.19761 -72.11617 36639 ft 368 kts 264°
2026-05-06 18:50 42.19575 -72.14939 36914 ft 367 kts 265°
2026-05-06 18:51 42.19391 -72.18224 37274 ft 363 kts 266°
2026-05-06 18:51 42.19188 -72.21628 37487 ft 363 kts 265°
2026-05-06 18:51 42.18995 -72.24927 37757 ft 361 kts 265°
2026-05-06 18:52 42.18619 -72.31553 37776 ft 366 kts 266°
2026-05-06 18:52 42.18216 -72.38217 37825 ft 364 kts 266°
2026-05-06 18:53 42.17831 -72.44869 37806 ft 371 kts 264°
2026-05-06 18:53 42.17547 -72.49481 37783 ft 374 kts 265°
2026-05-06 18:54 42.17134 -72.56335 37765 ft 378 kts 266°
2026-05-06 18:54 42.16697 -72.63314 37795 ft 379 kts 265°
2026-05-06 18:55 42.16148 -72.70355 37800 ft 381 kts 258°
2026-05-06 18:55 42.15205 -72.73601 37797 ft 387 kts 244°
2026-05-06 18:55 42.13585 -72.76550 37825 ft 396 kts 234°
2026-05-06 18:56 42.10137 -72.82045 37808 ft 396 kts 237°
2026-05-06 18:56 42.06741 -72.87795 37794 ft 397 kts 239°
2026-05-06 18:57 42.03354 -72.93552 37801 ft 397 kts 238°
2026-05-06 18:57 42.00013 -72.99272 37783 ft 399 kts 238°
2026-05-06 18:58 41.96666 -73.04945 37790 ft 400 kts 238°
2026-05-06 18:58 41.92434 -73.09666 37814 ft 421 kts 219°
2026-05-06 18:59 41.87899 -73.13284 37791 ft 419 kts 221°
2026-05-06 18:59 41.82735 -73.17590 37776 ft 419 kts 221°
2026-05-06 19:00 41.77810 -73.21710 37793 ft 419 kts 221°
2026-05-06 19:00 41.73025 -73.25715 37788 ft 419 kts 222°
2026-05-06 19:01 41.68139 -73.29796 37808 ft 419 kts 222°
2026-05-06 19:01 41.63884 -73.34493 37828 ft 397 kts 238°
2026-05-06 19:02 41.60466 -73.39932 37805 ft 399 kts 237°
2026-05-06 19:02 41.56828 -73.45554 37821 ft 399 kts 237°